Weather History for K2DP - January, 2014

Change the Weather History Date:

Thursday, January 9, 2014

  Actual Average (KMQI) Record (KMQI)
Temperature  
Mean Temperature 34 °F -  
Max Temperature 51 °F 49 °F 69 °F (1969)
Min Temperature 18 °F 37 °F 13 °F (1970)
Degree Days  
Heating Degree Days 30    
Moisture  
Dew Point 24 °F    
Average Humidity 74    
Maximum Humidity 99    
Minimum Humidity 35    
Precipitation  
Precipitation 0.00 in - - ()
Sea Level Pressure  
Sea Level Pressure 30.56 in    
Wind  
Wind Speed 4 mph (NNE)    
Max Wind Speed 12 mph    
Max Gust Speed -    
Visibility 12 miles    
Events      
Averages and records for this station are not official NWS values.
T = Trace of Precipitation, MM = Missing Value Source: NWS Daily Summary

Daily Weather History Graph

Daily Weather History Graph

Search for Another Location

Airport or City:

Trip Planner

Search our weather history database for the weather conditions in past years. The results will help you decide how hot, cold, wet, or windy it might be!

Date:

Astronomy

Jan. 09, 2014 Rise Set
Actual Time 7:13 AM EST 5:08 PM EST
Civil Twilight 6:45 AM EST 5:36 PM EST
Nautical Twilight 6:14 AM EST 6:07 PM EST
Astronomical Twilight 5:43 AM EST 6:38 PM EST
Moon 12:29 PM EST (1/9) 1:24 AM EST (1/9)
Length of Visible Light 10h 50m
Length of Day
9h 54m
Waxing Gibbous, 66% of the Moon is Illuminated
Jan 9
Waxing Gibbous
Jan 15
Full
Jan 24
Last Quarter
Jan 30
New
Feb 6
First Quarter

Hourly Weather History & Observations

Time (EST) Temp. Windchill Dew Point Humidity Pressure Visibility Wind Dir Wind Speed Gust Speed Precip Events Conditions
12:56 AM 20.7 °F - 19.4 °F 95% 30.55 in 12.0 mi SW 1.2 mph - N/A   Clear
1:56 AM 18.9 °F - 17.4 °F 94% 30.55 in 12.0 mi WNW 1.2 mph - N/A   Clear
2:56 AM 18.3 °F - 16.9 °F 94% 30.55 in 12.0 mi North 1.2 mph - N/A   Clear
3:56 AM 19.0 °F - 17.6 °F 94% 30.55 in 12.0 mi North 1.2 mph - N/A   Clear
4:56 AM 19.8 °F - 19.0 °F 97% 30.55 in 12.0 mi North 2.3 mph - N/A   Clear
5:56 AM 18.5 °F - 17.4 °F 96% 30.56 in 12.0 mi North 1.2 mph - N/A   Clear
6:56 AM 19.4 °F 12.8 °F 18.3 °F 96% 30.58 in 12.0 mi North 4.6 mph - N/A   Clear
7:56 AM 21.9 °F 12.5 °F 19.4 °F 90% 30.60 in 12.0 mi North 8.1 mph - N/A   Clear
8:56 AM 36.3 °F 31.6 °F 29.3 °F 76% 30.61 in 12.0 mi NNE 5.8 mph - N/A   Partly Cloudy
9:56 AM 44.1 °F 39.5 °F 19.0 °F 37% 30.61 in 12.0 mi NE 8.1 mph - N/A   Clear
10:56 AM 47.7 °F - 24.1 °F 40% 30.60 in 12.0 mi NNE 5.8 mph - N/A   Clear
11:56 AM 50.0 °F - 23.2 °F 35% 30.57 in 12.0 mi East 8.1 mph - N/A   Clear
12:56 PM 51.1 °F - 25.7 °F 37% 30.54 in 12.0 mi Variable 5.8 mph - N/A   Clear
1:56 PM 51.1 °F - 25.9 °F 38% 30.53 in 12.0 mi ENE 11.5 mph - N/A   Clear
2:56 PM 49.8 °F - 26.8 °F 41% 30.53 in 12.0 mi NE 9.2 mph - N/A   Partly Cloudy
3:56 PM 48.2 °F - 29.7 °F 49% 30.55 in 12.0 mi ENE 8.1 mph - N/A   Clear
4:56 PM 43.2 °F 39.0 °F 30.2 °F 60% 30.55 in 12.0 mi NE 6.9 mph - N/A   Partly Cloudy
6:56 PM 34.7 °F 30.6 °F 29.5 °F 81% 30.54 in 12.0 mi NE 4.6 mph - N/A   Clear
7:56 PM 33.8 °F - 29.1 °F 83% 30.56 in 12.0 mi North 2.3 mph - N/A   Clear
8:56 PM 33.6 °F - 30.7 °F 89% 30.56 in 12.0 mi North 1.2 mph - N/A   Clear
9:56 PM 34.7 °F - 30.0 °F 83% 30.55 in 12.0 mi NNE 1.2 mph - N/A   Clear
10:56 PM 32.7 °F - 31.3 °F 94% 30.54 in 12.0 mi North 2.3 mph - N/A   Clear
11:56 PM 31.6 °F - 31.3 °F 99% 30.52 in 12.0 mi NE 2.3 mph - N/A   Scattered Clouds